Regional Weather Roundup
Issued by NWS Kansas City/Pleasant Hill, MO

Home | Current Version | Previous Version | Text Only | Print | Product List | Glossary On
Versions: 1 2 3 4 5 6 7 8 9 10 11 12 13 14 15 16 17 18 19 20 21 22 23 24 25 26 27 28 29 30 31 32 33 34 35 36 37 38 39 40 41 42 43 44 45 46 47 48 49 50
000
ASUS43 KEAX 310010
RWREAX

WEATHER ROUNDUP FOR EASTERN KANSAS AND NORTHWEST MISSOURI
NATIONAL WEATHER SERVICE KANSAS CITY/PLEASANT HILL MO
700 PM CDT THU JUL 30 2015

KSZ040-057-103>105-MOZ028-029-037-043-310100-
...KANSAS CITY METROPOLITAN AREA...

CITY           SKY/WX    TMP DP  RH WIND       PRES   REMARKS
K.C. INTL      PTSUNNY   83  66  56 SW3       30.14F
6HR MIN TEMP:  82; 6HR MAX TEMP:  86;

K.C. DOWNTOWN  MOSUNNY   85  58  39 CALM      30.12F
6HR MIN TEMP:  84; 6HR MAX TEMP:  89;

LEES SUMMIT    MOSUNNY   84  61  45 NW3       30.15S
6HR MIN TEMP:  83; 6HR MAX TEMP:  87;

OLATHE - IXD   SUNNY     84  54  35 SE5       30.15F
6HR MIN TEMP:  82; 6HR MAX TEMP:  86;

OLATHE - OJC   SUNNY     82  55  39 S3        30.14F
6HR MIN TEMP:  81; 6HR MAX TEMP:  85;

LAWRENCE       MOSUNNY   84  66  54 E3        30.13F

$$

MOZ001>008-011>017-020>025-030>033-038>040-044>046-053-054-310100-
...NORTHERN AND CENTRAL MISSOURI...

CITY           SKY/WX    TMP DP  RH WIND       PRES   REMARKS
ST. JOSEPH     SUNNY     84  67  56 SW5       30.12F
6HR MIN TEMP:  83; 6HR MAX TEMP:  87;

MOSBY          PTCLDY    86  59  39 S3        30.12F
WARRENSBURG    MOSUNNY   82  64  54 CALM      30.13F
WHITEMAN AFB   MOSUNNY   86  62  44 W3        30.13S
6HR MIN TEMP:  85; 6HR MAX TEMP:  89;

CLINTON        MOSUNNY   84  64  51 CALM      30.14F
SEDALIA        MOSUNNY   85  61  44 S6        30.15F
6HR MIN TEMP:  85; 6HR MAX TEMP:  89;

WARSAW         NOT AVBL
CHILLICOTHE      N/A     87  67  51 CALM      30.13F HX  90
6HR MIN TEMP:  85; 6HR MAX TEMP:  90;

KIRKSVILLE     SUNNY     84  64  50 W5        30.13F
6HR MIN TEMP:  84; 6HR MAX TEMP:  87;


$$

MOZ041-047>049-056>058-063>065-088>090-097-310100-
...EASTERN AND SOUTHERN MISSOURI...

CITY           SKY/WX    TMP DP  RH WIND       PRES   REMARKS
ST. LOUIS INTL PTSUNNY   87  62  43 NW7       30.11S
6HR MIN TEMP:  87; 6HR MAX TEMP:  92;

SPIRIT OF STL  PTSUNNY   84  70  62 W3        30.09F
COLUMBIA       MOSUNNY   84  65  52 W7        30.13F
JEFFERSON CITY MOSUNNY   87  60  40 NW3       30.11F
ROLLA          MOSUNNY   83  59  44 CALM      30.14S
OSAGE BEACH    MOSUNNY   82  64  54 CALM      30.15S
SPRINGFIELD    SUNNY     84  63  49 NE9       30.14S
BRANSON        PTSUNNY   81  64  57 E5        30.15F
JOPLIN         PTSUNNY   84  64  50 VRB5      30.13S
WEST PLAINS    MOSUNNY   81  65  58 CALM      30.16S

$$

IAZ060-094-KSZ022-034>040-054-083-096-NEZ052-066-093-310100-
...KANSAS...SOUTHEAST NEBRASKA AND IOWA...

CITY           SKY/WX    TMP DP  RH WIND       PRES   REMARKS
TOPEKA         MOSUNNY   84  64  50 E5        30.13F
6HR MIN TEMP:  83; 6HR MAX TEMP:  87;

MANHATTAN      MOSUNNY   87  61  41 S3        30.12F
EMPORIA        MOSUNNY   82  63  52 SE6       30.14F
CHANUTE        PTSUNNY   82  64  54 E8        30.13F
WICHITA        MOSUNNY   84  67  56 E7        30.13F
OMAHA          MOSUNNY   89  60  37 CALM      30.10F
LINCOLN        SUNNY     88  60  38 S9        30.12F
FALLS CITY     SUNNY     84  65  52 S5        30.12F
LAMONI         SUNNY     84  65  52 W7        30.13F
DES MOINES     MOSUNNY   85  63  47 W7        30.09F

$$




USA.gov is the U.S. government's official web portal to all federal, state and local government web resources and services.